This is the latest recevied weather packets stored in our database for station/object I3LPO-3. If no packets are shown the sender has not sent any weather packets the latest 1 day(s).
| Time | Temp. | Humidity | Pressure | Rain* | Wind** | Luminosity | Snow |
|---|---|---|---|---|---|---|---|
| 1777757707 | 15.56° C | 38% | 1022.7 hPa | - | - | - | - |
| 1777756503 | 15.56° C | 38% | 1022.7 hPa | - | - | - | - |
| 1777755299 | 16.11° C | 38% | 1022.7 hPa | - | - | - | - |
| 1777754096 | 16.67° C | 38% | 1022.8 hPa | - | - | - | - |
| 1777752892 | 16.67° C | 38% | 1022.7 hPa | - | - | - | - |
| 1777751689 | 17.22° C | 38% | 1022.7 hPa | - | - | - | - |
| 1777750485 | 17.78° C | 38% | 1022.6 hPa | - | - | - | - |
| 1777749282 | 17.78° C | 38% | 1022.5 hPa | - | - | - | - |
| 1777748078 | 18.33° C | 38% | 1022.1 hPa | - | - | - | - |
| 1777746874 | 18.89° C | 38% | 1021.9 hPa | - | - | - | - |
| 1777745673 | 19.44° C | 38% | 1021.6 hPa | - | - | - | - |
| 1777744471 | 20° C | 38% | 1021.5 hPa | - | - | - | - |
| 1777743270 | 20.56° C | 38% | 1021.4 hPa | - | - | - | - |
| 1777742069 | 20.56° C | 38% | 1021.4 hPa | - | - | - | - |
| 1777742032 | 20.56° C | 38% | 1021.5 hPa | - | - | - | - |
| 1777741021 | 21.11° C | 38% | 1021.5 hPa | - | - | - | - |
| 1777739818 | 21.11° C | 38% | 1021.6 hPa | - | - | - | - |
| 1777738614 | 21.11° C | 38% | 1021.7 hPa | - | - | - | - |
| 1777737411 | 21.11° C | 38% | 1021.8 hPa | - | - | - | - |
| 1777736207 | 21.11° C | 38% | 1022.1 hPa | - | - | - | - |
| 1777735004 | 21.11° C | 38% | 1022.2 hPa | - | - | - | - |
| 1777733800 | 21.11° C | 38% | 1022.2 hPa | - | - | - | - |
| 1777732596 | 21.11° C | 38% | 1022.5 hPa | - | - | - | - |
| 1777731393 | 21.11° C | 39% | 1022.6 hPa | - | - | - | - |
| 1777730189 | 21.67° C | 39% | 1022.8 hPa | - | - | - | - |
* Rain since midnight (hover to see other rain measurements)
** Current wind speed in m/s (hover to see current wind gust speed)